User: anonymous   Login
Location: Zapote
(9.9191°N, 84.0597°W)
Time: 12:21:27
(UTC-06:00)
Language:

DELFI C3 - Orbit

View from above orbital plane
View from above orbital plane
View from above satellite
View from above satellite

Ground track
Ground track

The orbit data is extracted from the following two-line orbital elements,

1 32789U 08021G   21105.67994856  .00001543  00000-0  10205-3 0  9997
2 32789  97.3828 143.4533 0011734   7.4789 352.6613 15.08742638707466
Epoch (UTC): 15 April 2021 16:19:07
Eccentricity: 0.0011734
inclination: 97.3828°
perigee height: 532 km
apogee height: 548 km
right ascension of ascending node: 143.4533°
argument of perigee: 7.4789°
revolutions per day: 15.08742638
mean anomaly at epoch: 352.6613°
orbit number at epoch: 70746

The dashed part of the orbit path shows where the satellite is in the earth's shadow,  

DLR